| time (UTC) | temp F | wind direction | speed MPH | gust MPH | rain 1hr in | rain 24hr in | rain mn in | humidity % | barometer mb |
| 20260906170006 | 92 | 360 | 1.0 | 7.0 | 0.00 | 0.00 | 0.00 | 70 | 1016.5 |
| 20260906164523 | 90 | 360 | 4.0 | 7.0 | 0.00 | 0.00 | 0.00 | 71 | 1016.7 |
| 20260906163038 | 88 | 360 | 3.0 | 6.0 | 0.00 | 0.00 | 0.00 | 74 | 1016.7 |
| 20260906161600 | 87 | 360 | 0.0 | 5.0 | 0.00 | 0.00 | 0.00 | 76 | 1016.6 |
| 20260906160015 | 86 | 360 | 4.0 | 6.0 | 0.00 | 0.00 | 0.00 | 77 | 1016.6 |
| 20260906154542 | 85 | 360 | 4.0 | 8.0 | 0.00 | 0.00 | 0.00 | 80 | 1016.5 |
| 20260906153048 | 84 | 360 | 3.0 | 8.0 | 0.00 | 0.00 | 0.00 | 81 | 1016.4 |
| 20260906151605 | 83 | 360 | 3.0 | 7.0 | 0.00 | 0.00 | 0.00 | 82 | 1016.5 |
| 20260906150018 | 82 | 360 | 2.0 | 6.0 | 0.00 | 0.00 | 0.00 | 83 | 1016.4 |
| 20260906144534 | 81 | 360 | 4.0 | 7.0 | 0.00 | 0.00 | 0.00 | 84 | 1016.5 |
| 20260906143053 | 81 | 360 | 5.0 | 9.0 | 0.00 | 0.00 | 0.00 | 85 | 1016.5 |
| 20260906141504 | 80 | 360 | 4.0 | 9.0 | 0.00 | 0.00 | 0.00 | 86 | 1016.5 |
| 20260906140022 | 79 | 360 | 5.0 | 9.0 | 0.00 | 0.00 | 0.00 | 87 | 1016.5 |
| 20260906134535 | 79 | 360 | 3.0 | 7.0 | 0.00 | 0.00 | 0.00 | 88 | 1016.4 |
| 20260906133104 | 78 | 360 | 1.0 | 4.0 | 0.00 | 0.00 | 0.00 | 88 | 1016.3 |
| 20260906131512 | 77 | 360 | 2.0 | 4.0 | 0.00 | 0.00 | 0.00 | 88 | 1016.2 |
| 20260906130028 | 76 | 360 | 1.0 | 4.0 | 0.00 | 0.00 | 0.00 | 88 | 1016.1 |
| 20260906124542 | 76 | 360 | 1.0 | 2.0 | 0.00 | 0.00 | 0.00 | 88 | 1016.0 |
| 20260906123056 | 76 | 360 | 1.0 | 3.0 | 0.00 | 0.00 | 0.00 | 88 | 1015.7 |
| 20260906121508 | 76 | 360 | 1.0 | 3.0 | 0.00 | 0.00 | 0.00 | 87 | 1015.7 |
| 20260906120025 | 76 | 360 | 1.0 | 2.0 | 0.00 | 0.00 | 0.00 | 87 | 1015.6 |
| 20260906114548 | 76 | 360 | 0.0 | 2.0 | 0.00 | 0.00 | 0.00 | 87 | 1015.4 |
| 20260906113056 | 76 | 360 | 1.0 | 2.0 | 0.00 | 0.00 | 0.00 | 86 | 1015.3 |
| 20260906111516 | 76 | 360 | 0.0 | 2.0 | 0.00 | 0.00 | 0.00 | 86 | 1015.0 |
| 20260906110026 | 76 | 360 | 3.0 | 5.0 | 0.00 | 0.00 | 0.00 | 86 | 1015.0 |
| 20260906104550 | 76 | 360 | 0.0 | 1.0 | 0.00 | 0.00 | 0.00 | 85 | 1015.0 |
| 20260906103101 | 77 | 360 | 0.0 | 3.0 | 0.00 | 0.00 | 0.00 | 85 | 1015.0 |
| 20260906101520 | 77 | 360 | 0.0 | 1.0 | 0.00 | 0.00 | 0.00 | 85 | 1014.9 |
| 20260906100033 | 77 | 360 | 0.0 | 2.0 | 0.00 | 0.00 | 0.00 | 85 | 1014.9 |
| 20260906094600 | 77 | 360 | 1.0 | 2.0 | 0.00 | 0.00 | 0.00 | 85 | 1014.8 |
| 20260906093131 | 77 | 360 | 1.0 | 3.0 | 0.00 | 0.00 | 0.00 | 85 | 1014.7 |
| 20260906091525 | 77 | 360 | 0.0 | 0.0 | 0.00 | 0.00 | 0.00 | 84 | 1014.6 |
| 20260906090038 | 78 | 360 | 3.0 | 5.0 | 0.00 | 0.00 | 0.00 | 84 | 1014.6 |
| 20260906084554 | 78 | 360 | 0.0 | 3.0 | 0.00 | 0.00 | 0.00 | 83 | 1014.3 |
| 20260906083008 | 78 | 360 | 0.0 | 4.0 | 0.00 | 0.00 | 0.00 | 83 | 1014.4 |
| 20260906081533 | 78 | 360 | 0.0 | 2.0 | 0.00 | 0.00 | 0.00 | 83 | 1014.3 |
| 20260906080042 | 78 | 360 | 0.0 | 0.0 | 0.00 | 0.00 | 0.00 | 84 | 1014.3 |
| 20260906074502 | 78 | 360 | 0.0 | 2.0 | 0.00 | 0.00 | 0.00 | 85 | 1014.3 |
| 20260906073019 | 78 | 360 | 0.0 | 1.0 | 0.00 | 0.00 | 0.00 | 84 | 1014.2 |
| 20260906071528 | 78 | 360 | 1.0 | 2.0 | 0.00 | 0.00 | 0.00 | 84 | 1014.1 |
| 20260906070042 | 78 | 360 | 0.0 | 0.0 | 0.00 | 0.00 | 0.00 | 82 | 1014.3 |
| 20260906064506 | 81 | 360 | 1.0 | 2.0 | 0.00 | 0.00 | 0.00 | 79 | 1014.6 |
| 20260906063026 | 81 | 360 | 0.0 | 2.0 | 0.00 | 0.00 | 0.00 | 79 | 1014.6 |
| 20260906061542 | 80 | 360 | 0.0 | 3.0 | 0.00 | 0.00 | 0.00 | 80 | 1014.6 |
| 20260906060008 | 80 | 360 | 0.0 | 3.0 | 0.00 | 0.00 | 0.00 | 80 | 1014.7 |
| 20260906054525 | 79 | 360 | 1.0 | 4.0 | 0.00 | 0.00 | 0.00 | 81 | 1014.7 |
| 20260906053048 | 79 | 360 | 1.0 | 8.0 | 0.00 | 0.00 | 0.00 | 80 | 1014.9 |
| 20260906051607 | 79 | 360 | 0.0 | 0.0 | 0.00 | 0.00 | 0.00 | 78 | 1014.6 |
| 20260906050022 | 80 | 360 | 0.0 | 2.0 | 0.00 | 0.00 | 0.00 | 78 | 1014.6 |
| 20260906044534 | 80 | 360 | 0.0 | 2.0 | 0.00 | 0.00 | 0.00 | 78 | 1014.5 |
| 20260906043047 | 80 | 360 | 1.0 | 2.0 | 0.00 | 0.00 | 0.00 | 77 | 1014.6 |
| 20260906041503 | 81 | 360 | 0.0 | 0.0 | 0.00 | 0.00 | 0.00 | 76 | 1014.5 |
| 20260906040020 | 82 | 360 | 0.0 | 3.0 | 0.00 | 0.00 | 0.00 | 74 | 1014.4 |
| 20260906034543 | 83 | 360 | 0.0 | 0.0 | 0.00 | 0.00 | 0.00 | 72 | 1014.3 |
| 20260906033055 | 83 | 360 | 0.0 | 0.0 | 0.00 | 0.00 | 0.00 | 71 | 1014.1 |
| 20260906031510 | 83 | 360 | 0.0 | 0.0 | 0.00 | 0.00 | 0.00 | 71 | 1014.0 |
| 20260906030024 | 84 | 360 | 0.0 | 0.0 | 0.00 | 0.00 | 0.00 | 68 | 1013.9 |
| 20260906024550 | 86 | 360 | 0.0 | 0.0 | 0.00 | 0.00 | 0.00 | 66 | 1013.7 |
| 20260906023055 | 87 | 360 | 0.0 | 0.0 | 0.00 | 0.00 | 0.00 | 64 | 1013.6 |
| 20260906023001 | 87 | 360 | 0.0 | 0.0 | 0.00 | 0.00 | 0.00 | 64 | 1013.6 |
| 20260906021527 | 87 | 360 | 0.0 | 1.0 | 0.00 | 0.00 | 0.00 | 62 | 1013.4 |
| 20260906020044 | 88 | 360 | 0.0 | 0.0 | 0.00 | 0.00 | 0.00 | 60 | 1013.3 |
| 20260906014647 | 88 | 360 | 0.0 | 0.0 | 0.00 | 0.00 | 0.00 | 60 | 1013.1 |
| 20260906013034 | 88 | 360 | 1.0 | 3.0 | 0.00 | 0.00 | 0.00 | 60 | 1012.9 |
| 20260906011528 | 89 | 360 | 0.0 | 1.0 | 0.00 | 0.00 | 0.00 | 59 | 1012.9 |
| 20260906010050 | 89 | 360 | 0.0 | 2.0 | 0.00 | 0.00 | 0.00 | 62 | 1012.9 |
| 20260906004508 | 89 | 360 | 0.0 | 0.0 | 0.00 | 0.00 | 0.00 | 63 | 1012.8 |
| 20260906003035 | 89 | 360 | 0.0 | 0.0 | 0.00 | 0.00 | 0.00 | 62 | 1012.8 |
| 20260906001545 | 92 | 360 | 0.0 | 0.0 | 0.00 | 0.00 | 0.00 | 60 | 1012.8 |
| 20260906000005 | 93 | 360 | 0.0 | 0.0 | 0.00 | 0.00 | 0.00 | 57 | 1012.7 |
| 20260905234516 | 95 | 360 | 0.0 | 0.0 | 0.00 | 0.00 | 0.00 | 56 | 1012.7 |
| 20260905233045 | 95 | 360 | 0.0 | 0.0 | 0.00 | 0.00 | 0.00 | 55 | 1012.6 |
| 20260905231555 | 95 | 360 | 1.0 | 3.0 | 0.00 | 0.00 | 0.00 | 53 | 1012.6 |
| 20260905230006 | 95 | 360 | 0.0 | 2.0 | 0.00 | 0.00 | 0.00 | 52 | 1012.6 |
| 20260905224525 | 95 | 360 | 1.0 | 4.0 | 0.00 | 0.00 | 0.00 | 51 | 1012.6 |
| 20260905223043 | 95 | 360 | 0.0 | 5.0 | 0.00 | 0.00 | 0.00 | 52 | 1012.5 |
| 20260905221615 | 96 | 360 | 2.0 | 5.0 | 0.00 | 0.00 | 0.00 | 50 | 1012.5 |
| 20260905221506 | 96 | 360 | 2.0 | 5.0 | 0.00 | 0.00 | 0.00 | 50 | 1012.5 |
| 20260905220015 | 96 | 360 | 0.0 | 5.0 | 0.00 | 0.00 | 0.00 | 51 | 1012.8 |
| 20260905214536 | 96 | 360 | 1.0 | 4.0 | 0.00 | 0.00 | 0.00 | 52 | 1012.9 |